Weather History for KVKY - December, 2013

Change the Weather History Date:

Saturday, December 14, 2013

  Actual Average Record
Temperature  
Mean Temperature 70 °F -  
Max Temperature 73 °F - - ()
Min Temperature 62 °F - - ()
Cooling Degree Days 4    
Growing Degree Days 20 (Base 50)    
Moisture  
Dew Point 66 °F    
Average Humidity 83    
Maximum Humidity 88    
Minimum Humidity 60    
Precipitation  
Precipitation 0.00 in - - ()
Sea Level Pressure  
Sea Level Pressure 29.92 in    
Wind  
Wind Speed 19 mph (WNW)    
Max Wind Speed 28 mph    
Max Gust Speed 36 mph    
Visibility 10 miles    
Events      
T = Trace of Precipitation, MM = Missing Value Source: NWS Daily Summary

Daily Weather History Graph

Daily Weather History Graph

Search for Another Location

Airport or City:

Trip Planner

Search our weather history database for the weather conditions in past years. The results will help you decide how hot, cold, wet, or windy it might be!

Date:

Astronomy

Dec. 14, 2013 Rise Set
Actual Time 6:39 AM CST 4:57 PM CST
Civil Twilight 6:13 AM CST 5:23 PM CST
Nautical Twilight 5:44 AM CST 5:53 PM CST
Astronomical Twilight 5:15 AM CST 6:22 PM CST
Moon 3:12 PM CST (12/14) 4:08 AM CST (12/14)
Length of Visible Light 11h 09m
Length of Day
10h 17m
Waxing Gibbous, 94% of the Moon is Illuminated
Dec 14
Waxing Gibbous
Dec 17
Full
Dec 25
Last Quarter
Jan 1
New
Jan 7
First Quarter

Hourly Weather History & Observations

Time (CST) Temp. Dew Point Humidity Pressure Visibility Wind Dir Wind Speed Gust Speed Precip Events Conditions
12:15 AM 73.4 °F 62.6 °F 69% 29.99 in 10.0 mi SW 21.9 mph 28.8 mph N/A   Mostly Cloudy
12:35 AM 73.4 °F 62.6 °F 69% 29.99 in 10.0 mi SW 13.8 mph 27.6 mph N/A   Mostly Cloudy
12:55 AM 73.4 °F 64.4 °F 73% 29.97 in 10.0 mi Variable 9.2 mph 19.6 mph N/A   Overcast
1:15 AM 73.4 °F 64.4 °F 73% 29.97 in - SW 19.6 mph 29.9 mph N/A   Overcast
1:35 AM 73.4 °F 64.4 °F 73% 29.97 in 10.0 mi WSW 27.6 mph 35.7 mph N/A   Overcast
1:55 AM 73.4 °F 64.4 °F 73% 29.96 in 10.0 mi SW 23.0 mph 32.2 mph N/A   Overcast
2:15 AM 73.4 °F 64.4 °F 73% 29.96 in 10.0 mi SW 24.2 mph 31.1 mph N/A   Overcast
2:35 AM 73.4 °F 64.4 °F 73% 29.95 in 10.0 mi WSW 24.2 mph 31.1 mph N/A   Overcast
2:55 AM 73.4 °F 66.2 °F 78% 29.95 in 10.0 mi SW 21.9 mph 31.1 mph N/A   Scattered Clouds
3:15 AM 73.4 °F 64.4 °F 73% 29.94 in 10.0 mi WSW 25.3 mph - N/A   Mostly Cloudy
3:35 AM 73.4 °F 66.2 °F 78% 29.94 in 10.0 mi WSW 21.9 mph - N/A   Mostly Cloudy
3:55 AM 73.4 °F 66.2 °F 78% 29.93 in 10.0 mi SW 21.9 mph - N/A   Overcast
4:15 AM 73.4 °F 68.0 °F 83% 29.93 in 10.0 mi SW 20.7 mph - N/A   Mostly Cloudy
4:35 AM 73.4 °F 66.2 °F 78% 29.92 in 10.0 mi WSW 24.2 mph - N/A   Scattered Clouds
4:55 AM 73.4 °F 68.0 °F 83% 29.92 in 10.0 mi WSW 23.0 mph - N/A   Partly Cloudy
5:15 AM 73.4 °F 68.0 °F 83% 29.91 in 10.0 mi WSW 20.7 mph 27.6 mph N/A   Clear
5:35 AM 73.4 °F 68.0 °F 83% 29.91 in 10.0 mi SW 19.6 mph 27.6 mph N/A   Clear
5:55 AM 73.4 °F 68.0 °F 83% 29.91 in 10.0 mi SW 23.0 mph 28.8 mph N/A   Scattered Clouds
6:15 AM 73.4 °F 68.0 °F 83% 29.91 in 10.0 mi WSW 20.7 mph 27.6 mph N/A   Scattered Clouds
6:35 AM 73.4 °F 69.8 °F 88% 29.91 in 10.0 mi SW 18.4 mph - N/A   Mostly Cloudy
6:55 AM 73.4 °F 69.8 °F 88% 29.91 in 10.0 mi SW 19.6 mph - N/A   Mostly Cloudy
7:15 AM 73.4 °F 69.8 °F 88% 29.91 in 10.0 mi SW 20.7 mph - N/A   Mostly Cloudy
7:35 AM 73.4 °F 69.8 °F 88% 29.91 in 10.0 mi SW 17.3 mph - N/A   Partly Cloudy
7:55 AM 73.4 °F 69.8 °F 88% 29.91 in 10.0 mi SW 19.6 mph - N/A   Partly Cloudy
8:15 AM 73.4 °F 69.8 °F 88% 29.92 in 10.0 mi WSW 18.4 mph - N/A   Mostly Cloudy
8:35 AM 73.4 °F 69.8 °F 88% 29.92 in 10.0 mi WSW 18.4 mph - N/A   Mostly Cloudy
8:55 AM 73.4 °F 69.8 °F 88% 29.94 in 10.0 mi West 16.1 mph - N/A   Mostly Cloudy
9:15 AM 73.4 °F 69.8 °F 88% 29.95 in 10.0 mi West 19.6 mph - N/A   Mostly Cloudy
9:35 AM 73.4 °F 69.8 °F 88% 29.94 in - West 17.3 mph - N/A   Mostly Cloudy
9:55 AM 73.4 °F 69.8 °F 88% 29.94 in 10.0 mi West 16.1 mph - N/A   Partly Cloudy
10:15 AM 73.4 °F 69.8 °F 88% 29.94 in 10.0 mi West 17.3 mph - N/A   Clear
10:35 AM 73.4 °F 69.8 °F 88% 29.93 in 10.0 mi West 17.3 mph - N/A   Scattered Clouds
10:55 AM 73.4 °F 69.8 °F 88% 29.92 in 10.0 mi WNW 17.3 mph - N/A   Scattered Clouds
11:15 AM 73.4 °F 69.8 °F 88% 29.91 in 10.0 mi WNW 17.3 mph - N/A   Partly Cloudy
11:35 AM 73.4 °F 69.8 °F 88% 29.90 in 10.0 mi WNW 20.7 mph - N/A   Clear
11:55 AM 73.4 °F 69.8 °F 88% 29.89 in 10.0 mi WNW 19.6 mph - N/A   Clear
12:15 PM 71.6 °F 68.0 °F 88% 29.88 in 10.0 mi WNW 21.9 mph - N/A   Clear
12:35 PM 71.6 °F 68.0 °F 88% 29.87 in 10.0 mi NW 21.9 mph - N/A   Clear
12:55 PM 73.4 °F 66.2 °F 78% 29.87 in 10.0 mi NW 17.3 mph - N/A   Clear
1:15 PM 73.4 °F 66.2 °F 78% 29.87 in 10.0 mi NW 19.6 mph - N/A   Partly Cloudy
1:35 PM 73.4 °F 66.2 °F 78% 29.87 in 10.0 mi NW 16.1 mph - N/A   Partly Cloudy
1:55 PM 71.6 °F 66.2 °F 83% 29.86 in 10.0 mi NNW 16.1 mph - N/A   Partly Cloudy
2:15 PM 71.6 °F 66.2 °F 83% 29.87 in 10.0 mi NW 15.0 mph - N/A   Clear
2:35 PM 71.6 °F 66.2 °F 83% 29.87 in 10.0 mi WNW 16.1 mph - N/A   Clear
2:55 PM 71.6 °F 66.2 °F 83% 29.87 in 10.0 mi NW 12.7 mph - N/A   Clear
3:15 PM 71.6 °F 66.2 °F 83% 29.87 in 10.0 mi WNW 16.1 mph - N/A   Clear
3:35 PM 71.6 °F 66.2 °F 83% 29.87 in 10.0 mi NW 15.0 mph - N/A   Scattered Clouds
3:55 PM 71.6 °F 66.2 °F 83% 29.87 in 10.0 mi NW 15.0 mph - N/A   Scattered Clouds
4:15 PM 69.8 °F 66.2 °F 88% 29.87 in 10.0 mi NW 13.8 mph - N/A   Partly Cloudy
4:35 PM 69.8 °F 66.2 °F 88% 29.88 in 10.0 mi NNW 12.7 mph - N/A   Clear
4:55 PM 69.8 °F 66.2 °F 88% 29.88 in 10.0 mi NNW 11.5 mph - N/A   Clear
5:15 PM 69.8 °F 66.2 °F 88% 29.88 in 10.0 mi NNW 10.4 mph - N/A   Partly Cloudy
5:35 PM 69.8 °F 66.2 °F 88% 29.89 in 10.0 mi NW 8.1 mph - N/A   Mostly Cloudy
5:55 PM 69.8 °F 66.2 °F 88% 29.90 in 10.0 mi NW 10.4 mph - N/A   Overcast
6:15 PM 69.8 °F 66.2 °F 88% 29.90 in 10.0 mi WNW 8.1 mph - N/A   Overcast
6:35 PM 69.8 °F 66.2 °F 88% 29.91 in 10.0 mi NW 9.2 mph - N/A   Overcast
6:55 PM 69.8 °F 66.2 °F 88% 29.93 in 10.0 mi NW 16.1 mph - N/A   Overcast
7:15 PM 68.0 °F 62.6 °F 83% 29.93 in 4.0 mi North 26.5 mph - N/A   Overcast
7:35 PM 66.2 °F 62.6 °F 88% 29.95 in 4.0 mi North 18.4 mph - N/A   Mostly Cloudy
7:55 PM 66.2 °F 62.6 °F 88% 29.95 in 10.0 mi North 13.8 mph - N/A   Overcast
8:15 PM 66.2 °F 62.6 °F 88% 29.95 in 10.0 mi North 20.7 mph - N/A   Overcast
8:35 PM 66.2 °F 62.6 °F 88% 29.95 in 10.0 mi North 18.4 mph - N/A   Overcast
8:55 PM 66.2 °F 62.6 °F 88% 29.96 in 10.0 mi NNE 9.2 mph 16.1 mph N/A   Overcast
9:15 PM 68.0 °F 62.6 °F 83% 29.96 in 10.0 mi NNE 11.5 mph - N/A   Overcast
9:35 PM 68.0 °F 62.6 °F 83% 29.96 in 10.0 mi North 9.2 mph - N/A   Overcast
9:55 PM 68.0 °F 60.8 °F 78% 29.95 in 10.0 mi NNE 9.2 mph - N/A   Overcast
10:15 PM 68.0 °F 59.0 °F 73% 29.96 in 10.0 mi North 9.2 mph - N/A   Overcast
10:35 PM 68.0 °F 59.0 °F 73% 29.97 in 10.0 mi NNW 12.7 mph - N/A   Overcast
10:55 PM 68.0 °F 53.6 °F 60% 29.96 in 10.0 mi NNW 13.8 mph - N/A   Overcast
11:15 PM 66.2 °F 59.0 °F 78% 29.95 in - North 18.4 mph - N/A   Overcast
11:35 PM 66.2 °F 55.4 °F 68% 29.95 in 10.0 mi North 23.0 mph - N/A   Overcast
11:55 PM 62.6 °F 59.0 °F 88% 29.96 in 10.0 mi North 25.3 mph - N/A   Overcast